Location: Olomouc
(49.5833°N, 17.2500°E)
Time: 17:54:39
(UTC+02:00)

ISS - Visible Passes

Search period start: 24 September 2017 00:00
Search period end: 04 October 2017 00:00
Orbit: 401 x 407 km, 51.6° (Epoch: 25 September)

Date Brightness Start Highest point End Pass type
(mag) Time Alt. Az. Time Alt. Az. Time Alt. Az.
25 Sep -1.5 19:46:21 10° SSE 19:46:47 11° SE 19:46:47 11° SE visible
26 Sep -2.4 20:27:56 10° SSW 20:29:49 26° S 20:29:49 26° S visible
27 Sep -2.3 19:36:10 10° SSW 19:38:42 21° SE 19:39:59 17° ESE visible
27 Sep -1.4 21:11:34 10° WSW 21:12:38 19° WSW 21:12:38 19° WSW visible
28 Sep -3.8 20:19:16 10° SW 20:22:29 59° SSE 20:22:37 58° SE visible
29 Sep -3.2 19:27:06 10° SW 19:30:10 38° SSE 19:32:28 16° E visible
29 Sep -2.0 21:03:16 10° W 21:05:07 30° W 21:05:07 30° W visible
30 Sep -3.9 20:10:49 10° WSW 20:14:06 87° N 20:14:52 50° ENE visible
30 Sep -0.3 21:47:29 10° WNW 21:47:30 10° WNW 21:47:30 10° WNW visible
01 Oct -3.8 19:18:26 10° WSW 19:21:41 67° SSE 19:24:31 13° ENE visible
01 Oct -2.3 20:55:00 10° W 20:57:10 36° WNW 20:57:10 36° WNW visible
02 Oct -3.6 20:02:28 10° W 20:05:44 65° N 20:06:46 39° ENE visible
02 Oct -0.4 21:39:08 10° WNW 21:39:24 12° WNW 21:39:24 12° WNW visible
03 Oct -3.8 19:09:58 10° WSW 19:13:15 80° NNW 19:16:18 12° ENE visible
03 Oct -2.4 20:46:39 10° WNW 20:48:57 39° NW 20:48:57 39° NW visible
